Theta_e
310 310 310 310 310 310 310 310 311 311 312 313 313 315 317 314 313 314 315 316 315 316 318 318 317 317 318 321 319 319 320 323 325 323 322 318 318 317 318 317 317 317 317 317 318
312 312 312 312 312 312 312 311 311 310 310 311 312 313 314 316 316 316 316 316 314 315 318 318 318 318 320 321 321 321 324 325 321 320 320 320 318 318 316 316 317 317 316 315 315
313 313 313 313 313 313 313 312 312 312 311 311 310 311 312 314 315 318 318 318 315 314 317 318 318 319 320 321 322 322 323 321 321 320 318 318 319 318 317 316 318 317 316 316 314
313 314 314 314 314 314 314 314 314 313 312 311 311 310 311 313 319 318 317 316 315 314 315 318 318 319 320 322 322 320 321 321 320 318 317 317 318 318 318 317 319 319 319 318 316
314 314 314 314 314 314 314 314 314 314 314 313 311 310 310 315 316 316 316 315 314 313 313 317 318 319 321 322 321 319 319 319 319 318 317 317 316 316 317 317 317 317 317 317 317
314 314 314 314 314 314 315 315 315 315 314 314 313 310 310 316 315 315 315 315 314 312 312 314 318 320 319 319 319 318 318 318 319 318 316 315 316 317 317 318 317 318 317 317 316
311 312 313 313 313 314 314 314 314 315 315 314 313 310 311 313 314 314 313 313 315 313 312 314 316 317 319 319 319 317 316 317 317 318 316 317 315 315 317 317 317 317 317 317 316
307 307 307 307 308 309 311 312 313 313 314 314 312 310 312 314 314 315 314 313 314 314 312 314 313 316 317 317 317 316 317 318 319 317 315 315 315 317 318 317 317 317 316 316 316
310 309 309 308 307 307 307 308 309 311 312 313 311 311 316 315 315 314 313 313 314 314 312 311 313 317 317 316 315 317 317 318 319 317 314 313 315 317 319 318 317 316 316 316 317
311 311 311 311 310 308 308 307 307 308 310 311 312 316 314 315 315 314 314 314 313 312 312 312 314 316 315 315 317 318 318 317 317 315 315 314 314 314 317 318 318 318 318 318 317
320 317 312 309 310 309 309 307 311 313 311 313 317 315 316 315 314 314 314 314 312 313 314 315 315 315 316 316 317 317 317 317 317 317 316 315 315 315 317 317 317 317 318 318 317
323 323 322 319 309 309 307 308 310 308 309 308 310 312 315 315 315 314 314 313 313 314 314 316 316 316 316 316 316 316 316 316 316 315 315 314 315 315 315 316 316 317 317 317 316
321 322 322 321 318 308 306 306 306 307 313 311 310 311 310 311 313 314 314 313 314 315 315 315 316 316 315 315 315 315 315 315 315 315 312 314 313 313 313 315 315 316 316 316 315
322 322 321 322 316 308 310 307 308 309 310 312 311 312 311 312 311 313 314 314 314 314 314 314 315 315 315 315 314 314 314 315 315 315 315 314 314 314 315 313 313 315 316 316 315
322 322 321 321 320 314 308 308 309 307 311 313 309 310 313 312 310 311 312 312 313 313 314 314 314 315 315 315 314 315 312 314 315 315 315 316 314 314 313 313 313 312 316 316 315
322 322 321 321 321 319 307 308 308 309 310 312 311 312 313 312 311 309 310 310 311 313 312 312 312 313 315 311 313 311 313 313 312 312 313 313 314 313 312 313 313 312 315 313 314
324 323 322 321 319 320 314 307 309 309 313 313 313 313 313 314 313 310 310 310 311 313 313 313 313 312 311 313 310 311 315 315 316 314 316 312 313 315 314 312 311 310 313 313 314
323 323 322 322 321 321 313 310 309 316 315 312 312 314 314 314 314 312 312 312 311 311 313 315 315 313 310 312 315 311 314 315 315 313 314 313 312 312 313 313 314 315 313 313 312
322 322 322 322 320 315 309 309 318 319 316 316 315 312 312 313 314 314 312 313 313 311 313 313 313 309 309 311 313 312 312 314 314 306 310 312 312 313 312 312 310 310 313 312 311
319 319 319 319 319 314 308 311 315 317 315 313 311 312 312 312 312 313 313 313 313 312 312 314 314 310 306 306 307 309 308 312 312 309 311 314 314 314 312 311 310 309 309 312 312
314 317 317 316 317 310 310 309 313 314 316 314 315 310 309 310 311 312 312 313 313 314 312 313 313 311 306 306 309 306 308 308 310 312 315 317 314 311 312 313 311 309 312 312 312
311 314 315 316 312 311 311 310 313 313 315 315 308 309 311 310 311 309 309 311 311 312 312 312 313 315 312 309 307 309 310 310 311 312 310 312 314 310 311 311 310 309 311 311 311
310 313 313 315 316 315 308 311 312 314 314 314 315 310 311 311 312 311 312 311 313 312 311 310 312 314 313 312 305 308 308 310 311 310 312 312 312 312 311 309 310 309 310 311 312
309 312 311 310 313 315 316 312 312 312 312 313 314 314 314 313 312 313 313 311 311 311 311 311 312 313 314 313 312 310 309 308 309 311 312 311 311 311 311 312 312 312 312 312 313
305 309 311 311 308 310 313 314 314 313 313 313 314 315 313 314 313 313 311 311 311 311 310 309 311 310 310 311 311 311 311 312 312 309 310 310 310 311 311 311 311 312 312 311 311
301 305 304 302 304 306 310 310 314 313 314 314 314 314 314 315 314 315 314 312 312 310 311 309 311 310 312 310 310 311 310 311 311 312 312 310 309 309 310 310 310 311 311 310 310
298 299 298 301 303 304 307 309 308 304 306 312 311 314 314 314 314 313 313 314 313 314 313 308 309 310 311 310 310 312 311 310 310 310 310 311 311 311 311 311 311 311 311 311 311
Wind_Speed
8 8 9 10 10 10 11 10 10 9 9 9 8 7 7 8 9 11 11 9 6 5 5 4 3 1 3 4 6 3 3 5 6 1 1 7 5 7 7 5 9 11 10 8 10
9 9 10 10 10 10 11 11 11 11 10 9 9 8 9 10 13 19 15 13 10 8 5 3 2 4 5 4 4 5 3 5 4 7 3 5 9 7 4 11 14 15 17 16 16
12 12 12 13 13 12 11 11 11 11 12 12 11 10 9 10 12 10 9 17 14 10 7 5 7 6 9 9 7 5 5 4 5 4 4 8 9 12 8 8 17 22 25 26 24
13 14 14 15 15 15 15 15 14 13 13 13 12 12 10 7 5 3 6 8 16 12 9 5 4 5 5 7 14 4 17 16 3 3 3 4 6 11 21 25 6 11 18 26 30
16 16 16 16 17 17 18 18 17 16 15 15 15 13 10 7 14 18 16 10 14 14 12 9 10 12 8 7 7 8 11 13 13 11 12 13 18 9 24 24 26 24 22 20 27
19 18 18 19 20 19 19 20 20 19 18 17 16 14 10 10 15 16 15 13 15 14 13 13 7 10 9 9 7 5 11 16 12 18 11 6 8 12 16 13 22 27 26 27 29
22 22 22 21 21 22 21 21 22 21 20 19 17 15 13 23 18 19 16 16 16 16 14 13 15 10 5 7 6 5 7 10 17 19 5 7 10 14 40 22 18 19 27 32 31
20 21 23 23 23 24 23 22 23 22 22 19 17 12 11 17 20 22 19 16 15 16 16 17 13 11 6 5 5 4 5 4 4 14 8 11 11 10 22 27 28 23 23 25 31
20 20 21 21 22 24 24 23 24 24 23 20 13 9 8 13 14 17 16 11 12 13 14 12 10 7 5 3 6 8 6 10 8 17 8 10 9 6 7 7 12 20 24 27 31
20 21 22 22 22 22 23 22 22 23 21 13 11 5 17 10 12 10 12 14 6 7 5 8 7 4 4 6 7 7 8 9 10 8 7 8 17 13 20 16 23 31 32 33 35
16 18 20 22 21 22 23 19 9 7 9 12 6 9 7 12 10 9 10 14 9 8 7 12 5 12 15 15 17 12 14 16 21 12 9 15 17 15 24 19 24 31 35 35 39
17 18 17 19 18 17 17 6 8 9 14 22 28 27 25 22 8 15 15 14 11 10 11 4 15 16 10 11 9 9 11 19 16 7 7 9 13 11 10 19 29 30 34 42 32
19 20 21 17 18 13 12 10 10 12 7 11 28 19 28 30 16 22 24 15 8 8 14 17 8 13 6 9 9 14 12 15 16 12 4 4 7 11 11 28 34 36 40 41 34
20 21 23 18 8 13 9 8 6 8 4 6 6 5 11 8 7 15 22 14 9 12 11 15 19 18 18 19 11 20 9 10 12 7 7 7 8 9 5 9 10 26 35 39 25
20 20 22 18 16 10 10 5 5 5 7 2 3 2 3 6 2 3 18 12 13 8 7 8 7 6 8 12 8 8 4 3 5 6 6 6 7 7 10 9 14 12 32 36 21
20 19 20 18 16 13 9 3 3 3 9 4 5 3 2 3 2 4 2 4 5 5 10 15 2 3 4 2 1 4 0 5 3 2 7 11 12 5 7 9 6 9 34 22 17
23 20 21 18 8 13 8 1 3 7 2 4 4 6 6 7 6 6 4 4 5 2 7 7 19 3 4 3 2 3 2 3 3 2 10 11 12 17 5 6 9 11 31 7 12
18 19 27 23 20 17 7 1 12 5 18 3 5 6 6 8 8 10 6 6 12 7 3 4 7 17 8 11 7 8 8 5 7 4 18 4 8 8 10 16 24 36 21 11 15
22 23 26 25 26 16 10 5 12 9 12 16 10 4 7 7 6 6 9 6 8 18 9 7 8 5 4 3 9 6 6 5 3 1 5 10 8 7 8 10 12 11 12 14 15
21 21 34 23 17 21 3 9 10 8 7 7 12 7 8 12 9 10 10 7 8 15 14 5 9 6 3 4 2 3 1 2 2 2 8 17 8 8 5 11 7 8 12 18 15
22 12 25 16 15 12 5 9 12 20 17 8 16 19 20 19 12 12 11 8 7 4 17 5 6 8 6 9 10 3 4 4 2 4 7 18 10 4 8 5 10 12 14 11 9
17 5 14 20 10 7 9 7 11 21 17 7 2 14 24 23 12 10 15 12 17 2 5 3 1 4 15 2 3 7 10 11 7 10 5 12 25 1 5 5 8 9 12 9 12
8 13 17 25 9 11 4 10 14 20 21 8 12 13 13 14 9 17 21 32 35 7 4 1 1 5 14 15 3 6 5 11 14 8 18 17 24 14 11 5 9 9 11 14 14
5 3 10 23 29 20 20 13 18 27 25 32 14 17 15 21 21 11 15 16 27 23 12 10 5 12 16 17 8 3 5 11 14 12 24 21 30 27 28 25 25 33 26 31 32
7 5 12 4 7 14 21 21 24 21 31 24 14 28 20 17 20 23 27 29 21 27 2 8 10 18 21 24 29 31 32 22 19 22 22 28 24 30 31 22 25 33 32 24 32
7 6 6 6 10 6 7 16 24 30 28 23 26 28 24 30 28 30 22 19 18 3 15 12 8 14 22 30 35 34 28 26 31 35 32 32 30 31 36 43 38 39 47 28 37
11 9 6 7 7 9 8 3 5 10 13 25 24 23 26 29 35 45 45 37 21 15 11 9 8 7 17 23 24 18 31 37 33 30 33 29 38 41 34 35 35 39 42 32 38
Wind_Direction
333 338 344 350 355 357 358 1 2 1 360 357 354 340 309 292 292 283 271 265 276 272 287 292 302 288 193 230 233 255 284 267 276 340 283 120 197 193 229 239 203 209 225 238 224
322 327 333 337 342 345 349 350 350 350 347 342 336 331 318 303 288 276 269 257 258 255 273 273 328 243 233 228 220 225 233 263 40 344 283 179 220 211 215 230 232 231 236 237 233
312 318 322 326 328 330 332 335 337 338 338 336 331 323 315 310 302 272 277 252 242 240 247 239 237 229 247 235 211 219 234 27 324 297 294 295 261 245 223 249 233 225 229 239 234
304 309 313 317 319 320 322 324 326 328 327 326 324 320 311 300 275 281 302 256 231 231 229 227 192 202 232 222 235 259 249 265 281 286 272 246 267 263 232 235 254 252 239 236 231
300 303 306 309 310 313 315 316 317 320 320 319 317 314 306 271 254 274 282 268 231 231 226 209 221 229 252 273 228 222 264 278 254 258 257 260 261 254 264 255 258 260 256 245 237
292 294 299 302 303 305 308 309 310 311 312 312 310 304 287 248 269 269 270 260 240 231 228 216 216 244 284 256 248 360 282 285 270 238 226 230 262 241 258 267 252 244 245 240 241
291 291 291 292 295 297 300 303 304 305 306 307 305 295 269 262 271 273 269 256 244 239 227 237 230 237 317 257 284 278 297 266 247 229 227 221 275 231 253 244 251 242 239 243 245
296 298 298 296 293 291 294 297 299 302 301 300 298 282 257 267 261 257 260 251 241 237 235 231 239 242 225 293 267 213 232 275 259 165 170 156 261 230 261 243 233 243 246 246 245
298 301 303 304 300 297 295 295 297 299 297 292 283 250 258 256 250 254 248 241 236 234 234 238 220 225 181 211 283 223 249 235 261 178 133 180 249 257 183 209 228 239 252 255 259
313 312 312 310 305 302 301 302 302 295 284 272 233 233 239 238 253 250 232 213 205 212 219 200 210 220 205 199 227 236 240 263 265 199 179 206 253 271 257 268 270 269 269 264 259
323 327 330 327 321 316 309 325 330 283 252 225 242 215 206 232 245 241 220 197 187 196 199 190 187 217 217 219 234 255 268 265 267 261 190 231 243 248 265 256 259 265 266 265 264
323 322 329 337 336 324 317 354 308 295 299 266 258 256 255 256 233 230 213 185 185 207 209 212 226 235 260 265 283 274 277 272 280 315 214 250 257 258 267 267 258 261 268 267 267
319 324 324 341 336 335 318 309 298 289 256 269 258 241 238 239 231 224 203 200 197 213 214 224 203 211 242 245 261 250 247 264 266 286 236 314 269 247 246 251 258 261 260 265 263
308 318 319 339 331 338 330 336 313 318 274 235 209 223 228 206 267 220 202 200 214 219 215 252 241 243 250 253 236 266 245 262 272 262 251 164 281 224 232 260 234 248 262 268 262
299 309 310 324 322 322 308 317 313 324 285 103 170 214 183 221 13 204 189 209 234 188 171 220 180 187 230 239 217 269 137 271 291 274 308 247 281 231 196 241 246 247 259 265 278
285 289 295 304 312 319 318 298 317 236 246 189 135 162 159 218 330 6 303 228 318 272 257 256 94 218 210 84 102 124 169 216 225 217 254 212 217 223 193 213 232 239 255 260 259
271 272 272 282 263 293 317 199 268 229 297 178 197 170 207 187 190 190 177 210 212 187 233 226 237 162 140 148 154 141 134 298 286 193 253 188 224 242 204 191 198 223 250 207 217
282 273 264 262 272 269 224 144 237 203 219 189 167 186 215 173 219 187 196 227 230 263 302 238 272 182 179 208 172 181 172 174 242 218 277 316 255 253 214 232 220 238 253 239 213
271 273 275 275 261 230 174 187 238 251 250 270 267 275 223 215 223 163 219 235 211 193 210 217 250 16 145 153 159 184 192 192 259 127 298 239 270 297 244 223 214 223 222 221 229
273 278 268 271 259 216 131 238 263 318 320 336 293 244 255 240 188 184 186 218 221 191 212 281 276 190 133 33 339 189 252 102 225 282 246 274 275 249 195 223 250 249 226 244 255
282 270 269 243 223 179 195 218 266 268 274 259 272 291 283 279 276 262 235 247 196 199 195 218 212 250 123 194 191 164 232 230 241 189 244 276 261 273 204 193 207 222 231 228 226
265 245 238 219 179 198 221 202 230 261 248 262 257 247 258 279 294 310 290 284 350 109 181 224 195 243 251 49 302 200 225 189 218 238 233 246 264 66 138 199 155 166 182 229 237
237 255 234 210 226 223 227 239 239 252 248 199 225 213 235 249 251 238 258 268 284 252 237 115 31 313 303 293 255 215 213 224 234 252 242 244 263 217 261 174 169 192 213 209 243
240 245 210 224 237 241 234 224 232 235 246 245 240 224 232 239 235 247 240 250 248 251 259 93 195 222 237 247 286 317 254 239 228 243 249 246 261 266 267 268 274 276 267 260 266
235 248 241 219 250 269 258 245 242 237 231 245 239 236 225 244 243 239 244 254 261 255 205 152 226 222 237 254 264 261 263 255 269 257 250 267 259 268 268 268 267 273 274 268 283
264 279 306 306 309 301 258 254 271 262 250 238 237 246 240 239 236 252 243 241 238 255 229 175 234 221 233 233 240 248 256 259 244 247 255 256 268 255 270 272 271 272 270 279 281
262 259 325 249 269 270 255 290 313 347 314 289 287 262 253 249 250 244 245 257 258 225 236 188 200 209 243 236 246 252 236 238 247 250 243 245 244 256 258 258 261 265 274 275 271